Regional Weather Roundup
Issued by NWS

Home | Current Version | Previous Version | Text Only | Print | Product List | Glossary Off
Versions: 1 2 3 4 5 6 7 8 9 10 11 12 13 14 15 16 17 18 19 20 21 22 23 24 25 26 27 28 29 30 31 32 33 34 35 36 37 38 39 40 41 42 43 44 45 46 47 48 49 50

402
ASUS45 KSLC 280510
RWRUT

UTAH REGIONAL WEATHER ROUNDUP
NATIONAL WEATHER SERVICE SALT LAKE CITY UT
1100 PM MDT SAT AUG 27 2016

UTZ001>011-023>025-280600-

NORTHERN UTAH

CITY           SKY/WX    TMP DP  RH WIND       PRES   REMARKS
BRIGHAM CITY     N/A     66  32  28 SE3       30.03R
HILL AFB       CLEAR     68  26  20 SE14      30.06R
LOGAN          PTCLDY    61  38  42 SW7       30.04R
OGDEN          CLEAR     67  28  23 S9        30.03R
PROVO AIRPORT  CLEAR     64  39  39 SE9       30.07R
SALT LAKE CITY PTCLDY    73  32  22 SE8       30.02R
VERNAL         CLOUDY    66  43  43 E3        30.14R
WENDOVER       CLEAR     70  34  26 NE5       30.02S
HEBER CITY     CLEAR     52  36  54 CALM      30.14R
WEST JORDAN    CLEAR     69  32  25 SW8       30.05S

$$

UTZ012>022-026-027-280600-

SOUTHERN/CENTRAL UTAH

CITY           SKY/WX    TMP DP  RH WIND       PRES   REMARKS
BLANDING       MOCLDY    62  48  61 N8        30.31R
BRYCE CANYON   CLOUDY    52  47  83 CALM      30.32R
CEDAR CITY     PTCLDY    56  49  77 SW6       30.19R
MILFORD        CLEAR     60  50  69 S12       30.14R
MOAB/CYNLANDS  CLOUDY    70  47  43 CALM      30.13R
PRICE          PTCLDY    64  39  39 E7        30.20R
ST GEORGE      CLEAR     70  57  64 SE7       30.09S

$$

REGIONAL REPORTS     COLORADO/ARIZONA

CITY           SKY/WX    TMP DP  RH WIND       PRES   REMARKS
CRAIG, CO      CLOUDY    55  42  61 CALM      30.21R
GRAND JUNCTION CLOUDY    68  47  46 SE9       30.15S
RIFLE          CLOUDY    62  49  62 SW3       30.19S
MONTROSE       CLOUDY    61  48  62 SW3       30.25R
CORTEZ         CLOUDY    57  50  77 NE7       30.25R
PAGE, AZ       MOCLDY    68  52  56 CALM      30.14R
GRAND CANYON   CLOUDY    54  49  83 E3        30.25F
KINGMAN        PTCLDY    66  57  72 S3        30.08R
FLAGSTAFF      CLOUDY    54  49  83 S5        30.29R

$$

REGIONAL REPORTS    NEVADA/IDAHO/WYOMING

CITY           SKY/WX    TMP DP  RH WIND       PRES   REMARKS
LAS VEGAS, NV  MOCLDY    82  45  27 E8        29.96R
ELY            CLEAR     55  17  22 S13       30.17R
ELKO           CLEAR     61  28  28 CALM      30.08R
POCATELLO, ID  CLEAR     69  28  21 S10       30.00S
BURLEY         CLEAR     59  43  55 S8        29.98R
EVANSTON, WY   CLEAR     56  23  27 SW7       30.23S
ROCK SPRINGS   CLEAR     61  20  20 SW8       30.20R

$$




USA.gov is the U.S. government's official web portal to all federal, state and local government web resources and services.